User: anonymous   Login
Location: Unspecified
(0.0000°N, 0.0000°E)
Time: 03:35:20
(UTC+00:00)
Language:

BADR-B - Orbit

View from above orbital plane
View from above orbital plane
View from above satellite
View from above satellite

Ground track
Ground track

The orbit data is extracted from the following two-line orbital elements,

1 27003U 01056C   18023.84873704 -.00000024  00000-0  22307-4 0  9994
2 27003  99.3804 163.2208 0021020 119.8020 240.5220 13.70232413806325
Epoch (UTC): 23 January 2018 20:22:10
Eccentricity: 0.0021020
inclination: 99.3804°
perigee height: 983 km
apogee height: 1014 km
right ascension of ascending node: 163.2208°
argument of perigee: 119.8020°
revolutions per day: 13.70232413
mean anomaly at epoch: 240.5220°
orbit number at epoch: 80632

The dashed part of the orbit path shows where the satellite is in the earth's shadow,  

DLR